Temp
56 56 57 57 57 57 57 57 57 58 58 59 59 60 60 60 57 56 56 58 58 55 59 61 65 64 66 65 62 64 67 64 59 64 58 58 55 60 62 63 64 68 69 68 62 63 63 76 75 73 76 78 80 77
56 56 56 56 57 57 57 57 57 57 57 58 59 59 59 59 58 57 53 58 59 54 58 60 64 68 68 69 65 64 61 61 63 63 61 59 57 58 61 64 64 66 69 70 68 72 72 76 74 77 77 76 78 76
55 55 56 56 56 56 56 57 57 57 58 58 58 59 59 59 58 57 53 54 56 54 56 57 64 72 71 71 76 64 64 65 61 65 61 63 60 64 60 62 63 64 65 69 67 72 73 77 78 78 80 81 80 79
55 55 56 56 56 56 56 56 56 57 57 58 58 59 59 59 57 56 53 55 57 56 50 60 70 67 75 72 71 74 72 66 64 61 60 65 66 64 66 66 66 68 66 66 68 72 74 77 78 81 81 82 79 77
55 55 55 55 55 56 56 56 56 57 57 58 58 58 58 58 56 55 53 54 58 55 50 54 66 71 71 72 69 70 70 66 65 65 65 67 68 66 67 66 66 68 68 70 72 75 74 76 79 80 80 81 78 75
54 54 55 55 55 55 56 56 56 56 57 57 58 58 58 56 55 52 48 53 56 58 52 50 68 65 69 68 69 66 64 65 68 62 65 65 68 70 68 67 73 74 74 76 75 76 76 79 80 81 81 81 79 78
54 54 55 55 55 55 55 56 56 56 56 57 57 57 56 54 52 49 50 50 54 59 52 51 59 67 69 68 68 67 66 62 64 67 66 70 69 69 69 67 74 75 74 74 75 75 76 79 79 79 79 76 74 77
54 54 54 55 55 55 55 55 56 56 56 57 56 56 54 53 53 51 53 52 53 55 54 50 55 62 71 67 64 68 62 61 62 65 66 67 66 67 66 71 73 74 73 72 73 77 77 76 77 76 77 76 73 71
54 54 54 54 55 55 55 55 56 56 56 56 54 54 52 50 48 51 57 55 55 55 52 52 52 59 69 67 67 65 68 61 64 65 66 68 65 64 70 70 72 74 74 76 75 77 76 76 74 74 75 74 72 68
54 54 54 54 54 55 55 55 56 56 54 54 53 50 47 50 57 56 52 48 51 55 52 51 59 58 66 65 65 66 66 66 63 67 67 65 67 71 69 67 67 70 75 76 73 71 72 72 72 72 72 72 71 68
54 54 54 54 54 55 55 55 55 54 54 51 49 49 55 57 52 51 48 46 50 50 53 56 58 60 67 64 65 63 63 62 61 63 65 63 64 68 66 66 69 70 73 75 75 77 78 78 72 69 67 67 67 66
53 53 54 54 54 55 55 54 54 53 52 52 52 54 55 52 50 47 47 49 50 51 56 57 60 60 66 65 66 63 63 61 59 65 62 61 66 63 63 63 65 68 72 71 72 71 71 71 70 69 67 66 66 64
53 53 54 54 54 55 55 54 54 54 53 54 52 51 50 49 42 44 45 48 51 56 58 58 59 63 62 65 63 64 61 61 64 61 62 64 63 63 61 63 64 66 68 68 67 68 68 67 68 67 65 65 65 63
53 53 53 54 54 54 54 54 54 54 53 50 49 40 45 45 47 51 53 55 60 59 59 59 61 62 63 63 62 61 59 62 57 56 60 62 61 61 62 64 66 66 67 67 66 66 65 65 65 65 66 65 64 62
53 53 53 53 54 54 54 54 54 54 51 48 49 42 47 52 54 56 58 58 60 60 61 59 59 61 60 60 61 59 56 56 58 58 60 61 60 61 62 64 65 65 65 66 67 66 65 63 60 59 59 62 61 60
53 53 53 54 54 54 53 54 53 53 51 50 49 48 52 50 54 56 57 57 62 61 61 61 59 58 58 61 59 58 58 56 60 62 61 60 60 61 62 64 64 65 66 66 66 65 65 64 63 60 59 59 60 62
52 51 54 54 54 53 54 52 51 49 49 49 49 53 50 50 51 54 58 59 61 60 59 59 57 55 59 57 56 60 60 61 63 61 60 61 61 61 63 63 64 64 65 65 65 64 64 62 57 57 57 59 61 60
50 53 54 53 53 53 52 52 50 49 46 49 49 50 50 52 53 54 57 59 58 58 59 58 59 57 55 55 58 60 59 59 61 63 61 62 62 62 64 63 63 63 63 64 65 64 63 62 62 62 62 61 61 61
52 54 54 54 54 51 48 49 50 46 48 50 51 50 50 52 54 58 54 58 60 62 61 59 57 57 60 62 61 59 60 63 61 61 61 62 63 63 64 64 64 64 64 64 63 61 65 63 61 65 65 64 64 64
53 53 54 54 54 49 46 46 50 47 46 50 49 51 49 51 55 59 59 61 61 62 58 58 60 60 61 62 64 66 67 65 63 62 61 62 64 64 64 64 65 63 64 64 65 56 61 61 64 65 66 65 66 66
52 52 53 52 51 50 48 47 46 48 50 49 49 50 52 54 56 59 60 59 62 56 56 62 63 63 61 61 63 66 64 66 66 68 65 62 64 66 64 63 63 62 63 64 63 60 57 63 64 66 66 66 67 65
49 52 50 52 49 50 48 50 48 49 50 51 50 49 50 52 57 57 56 60 59 61 61 62 63 64 64 62 63 65 64 64 64 61 56 58 64 65 65 66 66 65 66 66 66 65 65 66 66 66 68 69 62 68
52 52 50 49 47 44 43 50 48 49 47 47 48 49 48 54 56 57 57 57 59 59 60 63 63 63 64 61 61 59 61 64 66 67 66 69 68 67 68 67 69 68 68 68 68 70 69 58 62 66 69 66 67 67
51 49 47 46 46 42 48 46 47 47 47 46 46 49 51 53 55 55 55 57 61 59 61 61 64 60 61 61 63 64 65 67 65 65 67 68 68 67 68 71 70 71 72 73 71 67 67 68 59 66 67 67 67 68
43 44 45 37 47 46 45 45 44 46 45 49 50 51 52 53 52 52 54 58 60 62 61 61 62 63 62 61 63 63 63 68 67 65 66 67 68 68 68 68 69 71 71 69 68 68 64 66 66 67 67 67 67 67
38 47 42 48 48 48 47 44 45 46 49 49 51 52 53 54 51 50 54 56 57 59 62 62 63 63 63 65 66 67 66 66 65 67 67 68 70 71 70 68 70 70 71 70 70 67 65 65 66 66 66 65 51 65
41 46 48 50 50 51 49 50 51 51 50 50 52 52 52 49 49 54 56 59 60 61 62 64 65 66 66 65 65 66 66 67 68 70 70 70 72 72 72 71 69 71 71 70 70 69 68 66 66 66 67 68 68 68
48 49 47 49 50 51 49 50 50 50 51 52 53 50 50 51 52 59 61 61 63 64 65 65 65 67 67 67 69 68 67 69 69 70 71 72 72 73 71 72 70 48 69 71 71 71 70 69 68 68 68 68 69 70
48 49 50 47 49 51 50 51 52 53 54 55 53 53 54 59 61 62 62 63 64 65 65 65 63 65 67 67 68 70 71 72 70 67 66 68 70 71 71 72 71 71 71 69 47 59 68 70 70 70 69 70 69 70
48 50 50 50 49 48 51 53 54 56 56 56 57 57 56 57 61 60 61 61 62 62 62 64 66 66 68 69 70 70 72 72 72 72 69 69 72 75 74 73 73 72 71 71 70 66 45 63 58 69 69 70 70 70
50 53 50 50 50 54 55 56 58 58 57 57 56 56 56 57 59 59 59 60 61 61 63 62 64 65 65 66 67 68 69 74 72 71 72 74 75 74 74 74 75 74 73 72 71 71 70 70 71 70 70 69 69 65
50 48 48 48 50 55 57 56 55 55 55 54 54 56 57 57 53 59 60 60 61 61 56 59 63 66 68 70 71 71 52 72 73 73 72 73 73 73 75 75 74 74 73 73 73 73 72 71 71 70 70 68 68 69
50 51 51 52 52 51 55 55 54 53 52 54 54 53 54 55 55 59 60 62 62 63 65 67 69 70 69 69 70 71 58 67 61 47 46 47 45 55 70 74 74 73 72 73 73 73 71 70 69 68 65 65 67 68
MSLP
1016.53 1016.15 1015.76 1015.53 1015.40 1015.36 1015.33 1015.31 1015.45 1015.46 1015.61 1015.49 1015.50 1015.55 1015.65 1015.66 1015.97 1016.43 1016.56 1016.72 1016.58 1015.63 1013.44 1012.52 1011.72 1010.82 1010.22 1009.75 1009.25 1009.24 1008.81 1009.04 1009.30 1009.02 1008.81 1008.74 1008.98 1007.81 1007.21 1006.60 1006.15 1005.43 1005.33 1005.41 1005.70 1005.13 1004.70 1004.41 1004.84 1004.51 1004.62 1004.36 1004.44 1005.16
1015.99 1015.63 1015.34 1015.08 1014.94 1014.94 1014.95 1014.89 1015.01 1015.07 1015.21 1015.23 1015.22 1015.21 1015.34 1015.37 1015.60 1016.11 1016.54 1016.59 1016.81 1016.42 1014.07 1013.01 1011.90 1011.29 1010.96 1010.20 1010.13 1010.07 1010.20 1010.17 1009.93 1009.73 1009.87 1009.97 1009.26 1008.53 1007.38 1006.74 1007.04 1006.48 1006.03 1005.72 1005.83 1004.95 1004.79 1004.96 1004.97 1004.90 1004.91 1004.86 1005.14 1005.76
1015.51 1015.09 1014.82 1014.66 1014.51 1014.46 1014.53 1014.47 1014.56 1014.65 1014.83 1014.85 1014.88 1014.87 1015.01 1015.04 1015.27 1015.77 1016.21 1016.60 1016.68 1016.00 1013.75 1012.45 1010.05 1009.30 1009.99 1009.87 1010.21 1010.04 1010.14 1010.06 1010.14 1010.61 1010.09 1009.59 1008.81 1007.98 1007.19 1006.73 1006.69 1006.58 1006.74 1006.26 1005.91 1004.97 1004.71 1004.75 1004.97 1005.06 1004.87 1004.82 1005.24 1005.86
1014.99 1014.55 1014.31 1014.16 1014.11 1014.03 1014.02 1014.06 1014.09 1014.20 1014.38 1014.41 1014.46 1014.51 1014.66 1014.71 1014.99 1015.49 1015.99 1016.23 1016.31 1015.75 1014.33 1010.71 1009.48 1009.07 1008.55 1008.89 1009.18 1009.52 1009.79 1010.63 1010.82 1011.11 1009.90 1009.61 1008.44 1007.96 1007.13 1006.74 1006.62 1006.51 1006.69 1006.11 1005.51 1004.93 1004.73 1004.49 1004.56 1004.63 1004.68 1004.85 1005.36 1006.16
1014.37 1014.09 1013.79 1013.68 1013.63 1013.63 1013.61 1013.62 1013.65 1013.80 1013.92 1013.97 1014.00 1014.10 1014.26 1014.31 1014.75 1015.35 1015.76 1015.89 1015.87 1015.98 1014.53 1011.63 1009.55 1007.81 1007.85 1008.22 1008.74 1009.36 1009.91 1010.58 1010.73 1010.32 1009.83 1008.55 1008.19 1007.84 1007.29 1006.76 1006.09 1005.92 1005.46 1005.17 1004.56 1004.62 1004.65 1004.35 1004.38 1004.49 1004.58 1004.80 1005.67 1005.85
1013.77 1013.58 1013.26 1013.19 1013.18 1013.16 1013.18 1013.25 1013.27 1013.43 1013.52 1013.57 1013.62 1013.73 1013.67 1013.99 1014.73 1015.63 1015.95 1015.69 1015.75 1015.93 1015.10 1012.44 1009.20 1008.06 1007.59 1007.82 1008.38 1009.25 1009.93 1010.61 1010.42 1010.29 1009.32 1008.62 1007.87 1007.30 1006.53 1005.87 1004.77 1004.75 1004.79 1004.63 1004.62 1004.53 1004.51 1004.58 1004.57 1004.49 1004.55 1005.05 1005.75 1006.19
1013.24 1013.07 1012.73 1012.71 1012.69 1012.69 1012.72 1012.84 1012.93 1013.06 1013.14 1013.15 1013.29 1013.35 1013.70 1014.13 1014.66 1015.29 1015.59 1015.77 1015.64 1015.78 1014.91 1012.59 1009.46 1007.90 1007.63 1007.74 1008.22 1009.03 1009.81 1009.91 1010.07 1009.54 1008.70 1007.74 1007.48 1007.17 1006.52 1005.32 1004.62 1004.50 1004.63 1004.78 1004.76 1004.74 1004.65 1004.55 1004.67 1004.90 1005.15 1005.75 1006.45 1007.11
1012.81 1012.57 1012.21 1012.25 1012.22 1012.22 1012.28 1012.43 1012.57 1012.70 1012.77 1012.89 1013.12 1013.37 1013.87 1014.49 1014.81 1014.87 1014.66 1015.29 1015.71 1015.34 1014.61 1012.69 1009.58 1007.90 1007.19 1006.97 1007.51 1008.27 1008.85 1009.40 1009.35 1008.58 1008.17 1007.50 1007.55 1007.21 1006.07 1004.82 1004.55 1004.49 1004.63 1004.79 1004.84 1004.83 1004.93 1005.12 1005.24 1005.50 1005.94 1006.55 1007.26 1008.06
1012.34 1012.04 1011.75 1011.80 1011.79 1011.81 1011.87 1011.99 1012.17 1012.37 1012.51 1012.76 1013.18 1013.74 1014.38 1014.65 1014.77 1014.37 1014.42 1015.05 1015.46 1015.47 1013.77 1012.15 1009.86 1007.33 1006.86 1006.56 1006.80 1007.49 1007.30 1008.14 1008.32 1007.66 1007.57 1007.25 1006.87 1006.17 1005.20 1005.04 1004.72 1004.67 1004.57 1004.31 1004.56 1004.73 1005.11 1005.34 1005.82 1006.14 1006.57 1007.17 1007.76 1008.75
1011.82 1011.55 1011.33 1011.37 1011.38 1011.43 1011.53 1011.59 1011.72 1012.02 1012.46 1012.94 1013.33 1013.75 1013.86 1013.85 1013.99 1013.97 1014.59 1015.17 1015.25 1014.06 1013.35 1011.28 1009.49 1007.64 1006.90 1006.32 1006.21 1006.41 1006.60 1006.74 1007.13 1007.11 1007.25 1006.89 1006.00 1005.52 1005.53 1005.50 1005.44 1005.32 1004.84 1004.64 1004.64 1005.08 1005.44 1005.78 1006.30 1006.73 1007.22 1007.86 1008.48 1009.35
1011.25 1011.08 1010.90 1010.94 1011.02 1011.13 1011.30 1011.44 1011.57 1012.14 1012.69 1012.96 1012.97 1013.07 1013.01 1013.44 1013.76 1013.51 1013.46 1013.68 1013.16 1012.20 1010.89 1009.49 1008.57 1007.39 1006.65 1006.08 1005.66 1006.04 1005.97 1006.48 1006.46 1006.65 1006.59 1006.28 1005.80 1005.57 1005.90 1005.78 1005.65 1005.35 1005.11 1005.23 1005.17 1005.17 1005.31 1005.56 1006.51 1007.37 1008.14 1008.77 1009.38 1010.14
1010.72 1010.62 1010.45 1010.52 1010.69 1010.85 1011.07 1011.25 1011.54 1011.93 1012.21 1012.19 1012.26 1012.47 1012.60 1012.56 1012.56 1012.48 1012.01 1011.64 1010.93 1009.52 1008.65 1008.09 1007.59 1007.27 1006.44 1006.21 1005.55 1006.01 1005.70 1006.24 1006.11 1006.44 1006.34 1005.87 1005.86 1006.41 1006.52 1006.38 1006.13 1005.87 1005.71 1005.74 1005.82 1006.04 1006.27 1006.74 1007.41 1008.04 1008.85 1009.47 1010.11 1010.92
1010.23 1010.12 1010.00 1010.15 1010.36 1010.55 1010.76 1011.14 1011.43 1011.66 1011.88 1012.18 1012.08 1011.88 1011.69 1011.75 1011.28 1010.87 1009.91 1009.40 1008.65 1007.76 1007.38 1007.21 1007.00 1006.54 1006.54 1006.10 1005.71 1005.48 1005.58 1005.92 1006.16 1006.05 1005.77 1005.76 1006.33 1006.79 1007.03 1007.01 1006.75 1006.54 1006.48 1006.64 1006.88 1007.08 1007.39 1007.90 1008.53 1009.00 1009.70 1010.38 1011.03 1011.87
1009.68 1009.60 1009.58 1009.80 1010.04 1010.23 1010.45 1011.02 1011.45 1011.76 1011.81 1011.70 1011.50 1011.47 1011.25 1010.60 1009.89 1008.84 1008.36 1007.87 1007.39 1007.05 1006.85 1006.72 1006.45 1006.15 1006.04 1005.63 1005.58 1005.44 1006.08 1005.89 1005.92 1005.83 1005.67 1006.12 1006.69 1007.12 1007.32 1007.32 1007.16 1007.11 1007.17 1007.12 1007.31 1007.72 1008.14 1008.78 1009.53 1010.19 1010.86 1011.59 1011.75 1012.51
1008.88 1008.98 1009.21 1009.53 1009.77 1010.03 1010.41 1010.99 1011.43 1011.75 1011.63 1011.40 1011.13 1010.50 1010.14 1009.33 1008.75 1008.26 1008.02 1007.61 1007.01 1006.77 1006.56 1006.41 1006.29 1006.07 1005.69 1005.56 1005.66 1005.75 1005.96 1005.64 1005.66 1005.76 1006.21 1006.78 1007.38 1007.65 1007.76 1007.75 1007.72 1007.77 1007.77 1007.91 1008.21 1008.59 1009.20 1009.73 1010.35 1010.81 1011.21 1011.79 1012.74 1013.07
1008.25 1008.68 1008.83 1009.02 1009.46 1009.92 1010.51 1011.14 1011.57 1011.64 1011.37 1010.99 1010.59 1010.01 1009.43 1009.18 1008.34 1007.94 1007.50 1006.98 1006.56 1006.39 1006.38 1006.15 1005.81 1005.75 1005.54 1005.31 1005.30 1005.23 1005.33 1005.45 1005.80 1006.21 1006.75 1007.38 1007.84 1008.15 1008.40 1008.54 1008.51 1008.54 1008.60 1008.78 1009.15 1009.50 1009.94 1010.42 1010.88 1011.41 1011.88 1012.51 1013.37 1013.52
1008.02 1007.88 1007.99 1008.63 1009.28 1009.96 1010.50 1010.99 1011.26 1011.30 1011.02 1010.49 1009.95 1009.60 1009.38 1009.06 1008.44 1007.76 1007.15 1006.63 1006.44 1006.29 1005.86 1005.73 1005.57 1005.73 1005.71 1005.39 1005.37 1005.45 1005.49 1005.82 1006.19 1006.69 1007.32 1007.79 1008.09 1008.41 1008.71 1008.94 1009.08 1009.17 1009.28 1009.51 1009.83 1010.22 1010.55 1011.01 1011.43 1011.59 1012.14 1012.85 1013.48 1013.88
1007.52 1007.59 1008.00 1008.56 1009.30 1010.13 1010.67 1010.72 1010.77 1010.73 1010.46 1009.98 1009.72 1009.49 1009.21 1008.88 1008.32 1007.62 1006.83 1006.37 1006.30 1005.91 1005.71 1005.64 1005.62 1005.67 1005.57 1005.38 1005.40 1005.81 1006.24 1006.70 1006.99 1007.15 1007.65 1008.04 1008.40 1008.78 1008.99 1009.20 1009.47 1009.66 1009.89 1010.20 1010.48 1010.79 1011.11 1011.48 1011.89 1012.16 1012.56 1013.18 1013.53 1013.87
1007.15 1007.48 1008.11 1008.63 1009.04 1009.57 1010.19 1010.61 1010.58 1010.30 1009.97 1009.76 1009.53 1009.36 1009.13 1008.65 1007.85 1007.36 1006.73 1006.30 1006.09 1005.59 1005.27 1005.63 1005.65 1005.67 1005.59 1005.64 1005.69 1006.07 1006.39 1006.61 1007.09 1007.63 1007.91 1008.23 1008.47 1008.80 1009.11 1009.41 1009.65 1009.92 1010.20 1010.51 1010.83 1011.11 1011.32 1011.70 1011.99 1012.18 1012.53 1013.03 1013.18 1013.50
1007.12 1007.73 1008.26 1008.77 1009.14 1009.42 1009.95 1010.41 1010.35 1010.07 1009.73 1009.52 1009.48 1009.25 1008.87 1008.33 1007.67 1007.13 1006.79 1006.47 1005.84 1005.59 1005.76 1005.81 1005.84 1006.00 1006.09 1006.11 1006.16 1006.14 1006.40 1006.89 1007.31 1007.52 1007.91 1008.33 1008.61 1008.88 1009.10 1009.32 1009.54 1009.93 1010.33 1010.67 1010.99 1011.26 1011.64 1012.01 1012.14 1012.26 1012.47 1012.65 1012.78 1012.93
1007.64 1008.19 1008.61 1008.87 1009.21 1009.39 1009.66 1009.93 1010.01 1009.82 1009.58 1009.43 1009.27 1009.18 1008.64 1008.07 1007.56 1006.94 1006.68 1006.52 1006.01 1006.08 1006.26 1006.25 1006.20 1006.34 1006.62 1006.77 1006.81 1006.73 1006.95 1007.05 1007.17 1007.16 1007.41 1008.14 1008.60 1008.72 1009.12 1009.43 1009.62 1009.93 1010.18 1010.43 1010.71 1011.18 1011.43 1011.52 1011.64 1011.91 1012.12 1012.32 1012.46 1012.67
1008.00 1008.39 1008.79 1009.10 1009.18 1009.36 1009.49 1009.66 1009.61 1009.52 1009.65 1009.28 1009.32 1009.05 1008.53 1007.98 1007.52 1007.37 1007.25 1006.60 1006.62 1006.69 1006.73 1006.58 1006.50 1006.56 1006.75 1006.95 1007.02 1007.10 1007.29 1007.43 1007.57 1007.66 1007.84 1008.12 1008.36 1008.64 1008.90 1009.19 1009.47 1009.65 1009.90 1010.10 1010.33 1010.54 1010.78 1011.14 1011.49 1011.71 1011.78 1011.83 1012.20 1012.24
1007.98 1008.35 1008.78 1009.00 1009.18 1009.36 1009.85 1009.49 1009.43 1009.34 1009.21 1009.32 1009.18 1008.93 1008.75 1008.19 1007.88 1007.78 1007.39 1007.27 1007.01 1007.09 1007.03 1006.80 1006.75 1006.90 1006.95 1007.17 1007.29 1007.57 1007.67 1007.66 1007.58 1007.72 1007.97 1008.02 1008.27 1008.53 1008.74 1009.00 1009.13 1009.21 1009.33 1009.55 1009.94 1010.03 1010.29 1010.75 1011.01 1011.24 1011.31 1011.60 1011.70 1011.83
1008.51 1008.58 1008.75 1008.98 1009.12 1009.41 1009.49 1009.42 1009.42 1009.26 1009.33 1009.26 1009.03 1008.57 1008.28 1008.07 1008.03 1007.74 1007.38 1007.18 1007.01 1007.14 1007.05 1006.90 1006.77 1006.88 1007.06 1007.18 1007.37 1007.55 1007.73 1007.72 1007.83 1008.04 1008.14 1008.16 1008.14 1008.37 1008.50 1008.47 1008.64 1008.77 1008.85 1009.05 1009.32 1009.74 1010.03 1010.27 1010.66 1010.89 1010.97 1011.08 1011.20 1011.22
1008.85 1009.25 1009.07 1009.05 1008.90 1008.90 1008.87 1009.07 1009.17 1009.11 1008.93 1008.66 1008.40 1008.09 1007.96 1008.05 1007.79 1007.59 1007.31 1007.18 1007.07 1007.03 1007.23 1007.11 1006.95 1006.82 1006.98 1007.35 1007.57 1007.83 1008.01 1007.70 1007.71 1007.83 1008.05 1008.16 1008.14 1008.25 1008.35 1008.41 1008.47 1008.51 1008.74 1008.80 1008.87 1009.12 1009.61 1009.89 1010.11 1010.24 1010.39 1010.56 1010.67 1010.90
1008.63 1008.86 1008.83 1008.30 1008.27 1008.14 1008.17 1008.32 1008.52 1008.50 1008.35 1008.09 1007.83 1007.83 1007.75 1007.56 1007.45 1007.36 1007.41 1007.42 1007.33 1007.19 1007.07 1007.16 1007.03 1007.06 1007.12 1007.19 1007.21 1007.36 1007.62 1007.82 1007.86 1007.74 1007.80 1007.91 1007.83 1007.76 1007.75 1007.85 1007.89 1008.14 1008.45 1008.49 1008.51 1008.69 1009.01 1009.40 1009.55 1009.72 1009.88 1010.20 1010.69 1010.63
1008.32 1008.36 1008.30 1008.23 1007.95 1007.78 1007.92 1008.01 1008.01 1007.82 1007.68 1007.59 1007.64 1007.52 1007.44 1007.27 1007.29 1007.43 1007.51 1007.52 1007.38 1007.29 1007.27 1007.15 1007.02 1006.92 1006.89 1007.08 1007.29 1007.48 1007.62 1007.76 1007.75 1007.75 1007.74 1007.75 1007.79 1007.85 1007.82 1007.72 1007.75 1008.03 1008.28 1008.33 1008.37 1008.46 1008.56 1008.86 1009.10 1009.27 1009.38 1009.69 1009.91 1010.13
1008.39 1008.28 1008.06 1008.11 1007.78 1007.72 1007.49 1007.58 1007.65 1007.79 1007.83 1007.90 1007.73 1007.47 1007.34 1007.26 1007.40 1007.48 1007.55 1007.76 1007.67 1007.51 1007.30 1007.21 1007.20 1007.13 1007.17 1007.22 1007.27 1007.45 1007.62 1007.72 1007.78 1007.80 1007.76 1007.72 1007.77 1007.81 1007.89 1007.91 1008.11 1008.48 1008.31 1008.41 1008.39 1008.37 1008.44 1008.61 1008.87 1009.08 1009.24 1009.34 1009.53 1009.80
1008.45 1008.41 1008.15 1007.90 1007.74 1007.75 1008.04 1007.96 1008.02 1008.19 1008.35 1008.01 1007.76 1007.84 1007.82 1007.76 1007.78 1007.68 1007.82 1007.85 1007.80 1007.49 1007.33 1007.34 1007.55 1007.59 1007.56 1007.57 1007.57 1007.60 1007.58 1007.47 1007.38 1007.36 1007.34 1007.20 1007.22 1007.45 1007.72 1007.82 1007.99 1008.09 1008.19 1008.46 1009.01 1008.69 1008.66 1008.72 1008.84 1009.01 1009.15 1009.28 1009.50 1009.71
1008.75 1008.60 1008.21 1008.24 1008.21 1008.45 1008.69 1008.72 1008.49 1008.52 1008.50 1008.44 1008.35 1008.24 1008.21 1008.10 1008.03 1008.10 1008.01 1007.92 1007.79 1007.69 1007.66 1007.58 1007.46 1007.43 1007.27 1007.23 1007.18 1007.30 1007.48 1007.50 1007.41 1007.23 1007.20 1007.05 1007.03 1007.32 1007.53 1007.63 1007.69 1007.94 1008.21 1008.21 1008.44 1008.97 1009.45 1009.06 1009.46 1009.20 1009.26 1009.28 1009.35 1009.48
1009.12 1008.62 1008.64 1008.71 1008.73 1008.83 1008.83 1008.84 1008.66 1008.60 1008.53 1008.47 1008.50 1008.34 1008.23 1008.15 1008.03 1008.08 1008.10 1008.05 1007.93 1007.80 1007.60 1007.43 1007.28 1007.29 1007.26 1007.17 1007.14 1007.06 1006.98 1007.04 1007.16 1007.24 1007.39 1007.27 1007.28 1007.37 1007.37 1007.45 1007.61 1007.82 1007.92 1007.97 1008.14 1008.35 1008.65 1008.66 1008.70 1008.77 1008.84 1008.96 1009.08 1009.32
1009.18 1009.20 1009.05 1008.91 1008.87 1008.77 1008.64 1008.45 1008.37 1008.31 1008.35 1008.33 1008.35 1008.34 1008.19 1008.08 1008.04 1008.08 1008.22 1008.10 1007.76 1007.40 1007.30 1007.16 1006.91 1006.74 1006.90 1006.95 1006.98 1007.06 1007.31 1007.14 1007.03 1006.99 1007.11 1007.17 1007.17 1007.22 1007.25 1007.32 1007.47 1007.62 1007.65 1007.64 1007.84 1008.02 1008.23 1008.29 1008.37 1008.56 1008.72 1008.87 1008.94 1008.91
1009.35 1009.23 1009.13 1008.97 1008.85 1008.67 1008.46 1008.27 1008.03 1007.98 1008.11 1007.98 1007.98 1008.12 1008.11 1008.00 1007.88 1008.11 1008.19 1008.07 1007.84 1007.51 1007.15 1006.92 1006.76 1006.69 1006.68 1006.71 1006.64 1006.59 1006.99 1007.00 1007.06 1007.20 1007.25 1007.29 1007.34 1007.31 1007.22 1007.10 1007.12 1007.22 1007.36 1007.48 1007.63 1007.75 1007.97 1008.14 1008.27 1008.46 1008.66 1008.68 1008.60 1008.54
Wind_Speed
18 18 14 12 11 10 11 10 10 9 11 10 8 9 8 6 15 5 1 4 2 3 8 5 4 4 2 2 3 6 0 3 3 1 2 1 5 2 2 1 2 3 4 3 3 2 6 5 7 6 3 1 2 6
16 16 13 11 10 10 11 10 9 9 10 10 9 9 8 7 17 7 1 1 4 4 6 4 11 13 10 9 4 2 3 2 1 2 2 2 6 5 2 2 3 3 2 0 5 0 2 3 2 1 0 3 7 7
16 15 12 11 9 9 10 10 9 9 10 10 10 9 8 7 17 9 2 4 2 3 7 5 12 10 14 19 13 3 1 1 1 1 2 2 6 3 5 4 3 3 3 3 4 3 6 7 6 6 4 2 5 7
16 16 11 9 9 10 10 10 9 9 9 10 10 9 8 7 18 10 3 3 1 2 5 6 3 8 5 12 19 19 5 4 2 3 1 4 4 4 2 2 3 2 8 5 5 7 8 11 9 7 6 4 9 9
15 16 11 9 9 10 10 9 9 9 9 9 9 8 10 10 17 5 1 3 2 2 4 8 16 6 6 12 15 16 14 6 2 3 3 3 1 4 1 1 4 7 6 5 1 1 2 0 1 7 6 4 12 14
14 15 11 9 9 10 9 9 8 8 9 10 8 8 8 14 13 3 2 2 5 3 3 5 4 4 2 6 13 14 11 6 3 2 4 3 2 2 2 3 3 8 8 4 2 2 5 4 3 4 7 4 12 13
15 16 10 9 9 8 8 9 8 8 9 8 6 7 15 17 4 3 0 2 5 4 3 5 5 2 2 6 5 6 8 3 4 3 5 2 2 3 2 3 3 5 9 8 5 2 1 1 2 2 8 11 12 13
15 15 10 9 9 8 8 8 8 8 8 7 6 9 14 9 3 2 2 9 6 3 3 4 5 4 6 4 5 4 6 4 5 3 2 2 3 1 4 8 5 2 4 7 10 7 3 3 4 7 9 12 14 14
15 15 10 9 8 8 8 8 8 9 6 7 19 17 4 1 2 2 4 13 1 3 3 3 3 2 0 2 3 4 4 4 2 3 3 4 3 5 6 5 4 2 4 4 6 7 4 3 4 7 8 9 11 12
14 13 9 9 8 7 7 8 9 7 20 18 3 2 2 4 13 15 4 3 3 4 4 5 2 4 2 2 3 4 2 3 4 3 3 4 4 5 4 4 6 7 5 9 10 7 7 7 7 7 5 5 7 11
13 12 10 8 7 7 6 6 12 19 8 1 3 3 3 15 3 2 3 4 5 5 5 5 6 4 2 2 3 1 4 2 3 4 4 3 3 1 7 9 6 5 5 4 2 4 4 7 10 10 9 9 11 13
11 12 10 8 7 8 7 11 21 5 3 4 3 1 3 4 3 4 4 3 6 5 5 4 4 5 2 2 2 1 3 2 3 3 3 3 1 4 7 7 5 3 5 6 7 8 9 11 10 11 10 11 12 13
13 12 10 8 8 8 9 20 13 7 6 2 1 3 2 2 4 5 7 4 4 4 4 4 4 2 2 3 3 2 4 3 3 3 3 2 2 2 1 3 6 7 10 12 12 12 13 13 10 11 13 12 14 12
13 12 10 9 8 7 16 19 12 6 1 2 3 4 3 4 4 4 3 1 1 2 3 2 2 2 1 2 2 3 2 3 4 4 3 1 1 1 1 3 7 10 10 12 13 13 15 14 14 13 12 9 10 9
13 11 10 9 10 8 16 15 10 1 2 2 3 4 6 3 3 3 3 4 3 1 1 3 2 2 1 3 0 3 3 3 3 3 1 2 3 3 4 5 7 8 9 11 12 12 13 12 10 11 8 9 7 9
11 9 7 11 13 12 17 11 2 1 1 2 4 3 2 2 4 3 4 5 2 2 2 2 2 3 2 2 4 3 6 4 3 2 2 5 6 4 6 6 7 7 8 9 9 11 12 11 11 11 10 9 5 7
14 3 12 15 15 19 15 3 2 4 3 3 3 2 2 3 4 4 1 2 1 2 2 2 2 2 2 3 4 2 3 2 2 3 3 4 5 7 6 6 6 6 7 8 9 9 10 9 7 8 9 5 5 5
1 5 17 20 15 8 1 2 2 3 5 3 2 1 1 2 4 5 3 1 2 2 2 2 3 2 2 3 3 3 2 2 2 4 4 4 6 7 6 7 6 6 7 8 8 9 9 8 6 5 7 7 6 6
5 10 22 21 7 4 4 3 1 3 2 1 1 2 2 3 4 4 3 2 2 2 4 2 3 1 1 1 2 4 5 4 4 3 3 4 5 6 5 4 4 5 7 7 7 5 5 6 4 5 5 6 5 5
16 22 21 9 2 3 3 2 1 1 2 1 1 1 2 3 3 2 1 2 0 2 3 2 1 0 1 1 2 3 4 4 5 5 4 3 3 5 5 4 4 6 6 6 5 5 5 4 3 5 5 6 6 6
8 7 7 2 2 2 2 3 2 2 1 0 0 1 3 2 2 1 2 3 2 2 1 0 1 1 1 1 1 3 4 5 3 2 3 4 4 4 5 4 5 5 4 5 5 5 5 5 5 5 5 6 6 5
3 5 3 1 2 1 2 1 1 2 2 2 2 1 3 3 2 3 3 2 1 1 0 1 1 1 2 3 3 3 6 6 5 5 6 8 5 4 4 4 5 5 4 4 5 5 4 4 4 5 6 6 5 5
6 3 2 2 3 3 1 1 1 1 3 1 2 2 1 2 1 2 1 1 2 1 1 2 0 2 3 3 5 5 3 4 5 5 5 3 3 3 4 4 4 5 5 5 5 5 5 4 5 5 4 4 5 5
1 2 2 2 2 3 2 2 1 2 2 1 1 2 2 1 0 0 1 1 1 1 1 1 3 3 3 3 3 3 3 3 5 3 2 3 3 3 4 4 4 5 5 2 4 5 5 6 4 6 6 6 7 6
4 2 3 1 1 3 3 3 2 1 2 4 4 2 2 2 2 2 1 1 1 1 2 1 1 2 2 3 3 2 3 2 2 2 3 3 2 3 3 4 4 4 3 5 7 6 5 5 6 7 8 8 9 9
4 3 3 3 3 2 3 4 4 4 3 3 1 2 2 2 2 1 0 2 2 2 2 3 4 3 2 1 2 2 2 3 2 1 1 4 3 2 1 1 2 1 3 4 4 5 6 7 7 9 9 9 6 7
3 3 1 1 1 2 3 2 2 2 2 2 2 2 2 2 1 1 1 1 2 1 2 2 3 2 2 3 2 2 2 3 1 1 1 2 2 2 2 3 2 1 1 3 4 5 5 6 6 6 6 6 6 7
2 3 2 1 2 1 3 3 3 3 2 1 1 2 1 2 1 1 1 1 2 2 3 3 1 1 2 2 3 4 3 2 2 2 2 2 1 1 2 1 1 1 1 1 2 3 5 6 6 6 5 5 4 5
3 3 1 4 3 5 5 4 3 2 2 2 1 2 2 1 2 1 1 1 2 2 1 2 3 2 2 2 2 2 3 3 2 1 2 2 0 1 3 2 3 3 3 4 6 4 6 5 5 5 5 4 4 3
5 4 3 4 4 5 4 3 2 1 1 2 1 1 0 1 1 1 2 1 1 0 0 1 1 3 3 3 2 2 2 3 2 3 3 3 1 1 2 3 3 3 4 5 6 6 4 6 7 6 6 5 4 4
3 2 4 3 3 1 1 2 2 1 0 1 1 1 1 2 2 1 1 1 2 2 3 4 4 4 4 5 5 5 5 4 5 6 6 4 3 3 4 3 3 3 4 4 5 6 7 7 6 6 6 5 4 4
3 4 2 3 2 3 2 2 2 1 1 1 1 0 1 0 1 2 2 1 3 2 2 4 5 6 7 5 4 4 4 3 3 4 4 4 4 4 4 4 5 5 5 6 6 6 7 6 5 4 3 4 6 7
1 2 2 1 1 2 1 2 1 1 1 0 2 1 2 1 3 2 1 2 3 4 3 3 2 2 3 6 6 5 6 4 3 1 3 4 5 4 4 4 5 7 8 7 6 7 8 7 5 5 6 6 7 7
Wind_Direction
305 305 299 294 288 287 285 274 258 253 269 272 263 253 256 260 176 168 110 187 258 272 281 246 264 259 277 315 358 3 248 48 28 116 61 319 236 309 279 31 308 169 164 154 117 175 254 147 146 215 22 289 22 75
305 305 297 293 285 282 287 279 256 244 261 262 261 246 247 260 178 171 159 173 184 248 289 306 272 265 251 261 321 14 352 272 195 128 187 174 201 204 176 186 215 198 271 332 234 280 84 207 321 28 64 308 61 115
306 305 290 287 281 277 283 276 258 247 257 257 258 242 243 254 174 166 138 140 172 274 277 262 251 259 224 232 222 257 213 290 28 8 152 294 257 170 177 220 178 202 170 234 251 174 247 235 236 237 248 294 69 139
306 307 288 282 278 281 278 266 258 245 254 255 253 240 243 236 174 156 159 158 244 299 279 286 310 269 222 209 212 215 172 106 74 238 128 253 263 216 207 68 253 61 161 181 252 266 271 260 238 232 214 167 117 144
306 309 282 277 277 279 278 262 252 243 253 254 245 233 249 214 172 143 134 202 227 298 307 292 304 269 247 199 194 207 215 229 280 308 244 239 210 209 92 122 234 190 171 194 165 194 275 307 251 197 196 170 149 149
312 309 279 271 272 270 264 260 250 248 252 248 230 254 225 149 121 108 286 179 191 192 278 287 316 280 27 178 186 180 184 186 220 218 253 246 251 252 202 239 284 197 207 206 103 202 203 277 273 248 230 163 149 143
314 310 275 267 269 261 250 251 246 251 257 226 229 214 145 142 132 156 273 114 181 172 241 280 270 230 124 131 138 137 160 165 201 225 230 248 177 215 243 247 158 224 229 209 209 157 207 357 12 91 116 109 111 116
308 306 273 265 267 260 249 249 243 250 245 209 216 160 134 109 37 311 203 149 139 229 239 267 272 273 181 161 136 157 145 168 202 262 241 211 141 247 247 257 263 268 205 208 220 214 17 101 126 109 126 134 124 125
301 304 266 258 266 259 247 244 247 238 212 160 120 115 104 128 175 211 151 143 114 279 273 232 268 139 69 134 122 159 182 160 150 216 216 194 146 223 227 262 289 261 224 174 153 183 161 158 139 135 142 150 137 138
299 304 252 248 257 249 248 256 206 186 133 127 118 147 184 199 137 134 138 104 197 217 228 249 247 259 259 177 137 140 192 123 178 160 136 218 233 256 251 299 304 287 275 156 133 146 158 159 165 145 140 130 133 140
293 297 243 238 239 233 235 244 151 127 121 159 153 185 100 140 167 191 144 178 195 229 207 230 220 267 161 241 120 324 135 138 199 144 232 187 245 221 349 322 327 295 229 164 2 334 173 158 151 138 129 127 133 138
298 295 236 232 225 220 217 171 150 152 174 168 143 128 148 191 181 192 191 200 214 233 191 200 206 212 232 252 189 131 115 172 200 136 208 224 200 344 343 349 1 66 136 110 97 107 102 113 128 130 133 133 129 123
291 290 229 225 219 219 211 170 162 122 130 127 218 168 188 168 183 207 186 204 224 200 188 192 186 211 181 214 86 135 156 160 135 194 223 260 356 354 44 74 83 95 109 110 105 103 106 108 113 118 120 119 119 117
280 276 214 213 211 220 177 171 154 156 194 197 180 151 236 190 236 217 233 207 281 246 171 186 140 211 165 151 105 153 93 169 182 198 203 98 53 53 56 111 122 114 112 109 110 113 112 112 107 105 106 114 118 125
256 233 202 208 196 196 168 158 154 167 168 220 217 210 215 246 268 268 257 262 231 249 182 151 134 216 133 120 118 115 161 195 219 200 151 133 139 140 139 126 116 108 107 108 112 108 107 109 105 102 109 104 115 129
211 186 204 171 183 171 149 130 131 154 243 238 225 247 203 243 262 237 234 260 237 207 167 233 149 159 128 139 171 186 161 181 158 188 128 138 145 144 121 108 104 111 117 115 114 116 116 119 119 114 101 103 121 131
171 212 169 163 158 144 141 125 149 202 241 229 230 202 240 267 265 286 256 244 140 175 212 173 150 92 110 158 149 206 165 103 101 112 123 128 146 143 124 112 109 113 114 117 120 120 114 105 87 106 116 108 139 145
164 156 149 140 134 124 92 196 185 184 232 231 252 62 220 260 287 270 287 300 192 174 168 97 133 123 140 148 162 147 117 86 83 114 112 115 131 138 139 132 118 124 128 130 133 129 129 132 136 123 131 151 147 159
160 154 147 144 146 125 147 171 200 211 219 247 242 247 250 264 259 278 254 31 260 215 108 61 76 139 175 203 140 148 153 155 143 134 106 116 137 153 155 151 138 146 150 146 151 150 154 150 149 151 158 166 183 177
141 146 140 123 127 113 116 107 214 162 206 185 156 265 284 271 293 284 126 259 353 63 51 56 110 201 255 152 179 134 116 120 130 129 116 110 125 153 170 176 170 142 140 140 136 127 133 135 164 169 182 193 195 191
97 105 94 133 100 83 97 147 133 214 150 188 273 308 274 272 264 28 43 339 54 48 36 197 265 76 159 307 123 105 122 146 159 137 139 132 128 127 117 109 122 132 143 161 162 160 177 189 185 194 189 206 213 223
90 140 112 130 95 117 98 34 83 142 198 140 126 296 338 348 22 28 321 27 50 65 237 313 16 115 117 108 109 108 123 111 96 97 88 120 139 142 146 147 157 163 176 187 190 198 209 199 191 204 215 222 213 222
109 68 71 66 72 51 52 354 113 341 109 86 12 99 261 261 24 309 50 321 307 343 310 310 167 127 97 104 96 84 105 144 123 118 128 121 133 150 163 175 193 192 197 207 203 215 217 192 200 222 213 210 212 217
13 90 96 120 124 115 144 88 65 72 76 98 180 208 193 171 23 70 237 258 333 337 274 164 164 111 83 78 93 103 98 105 106 117 142 154 171 189 210 208 207 220 227 200 201 214 215 214 193 203 211 210 210 216
73 15 91 330 196 155 121 118 87 140 175 194 190 166 152 174 141 185 225 279 310 305 104 246 222 70 102 93 128 146 200 170 143 170 171 200 156 157 194 217 225 235 208 212 214 213 195 197 207 213 213 214 213 216
89 167 160 184 143 179 147 123 158 182 188 170 167 99 169 165 153 145 334 325 294 283 236 186 170 153 141 110 128 142 146 166 139 199 138 198 220 258 314 309 294 119 188 226 230 209 207 209 218 218 217 213 216 221
90 93 81 1 25 126 109 100 142 176 113 89 116 148 176 111 93 70 326 299 308 322 243 199 179 188 141 141 128 118 132 156 101 359 11 164 176 232 258 267 262 36 188 204 203 206 197 189 195 194 193 200 213 210
60 20 102 35 110 331 103 88 68 62 77 51 212 67 60 63 93 89 84 35 339 356 79 88 87 138 122 130 120 125 106 123 121 139 155 180 176 233 224 227 4 33 272 158 182 157 147 139 145 156 174 186 182 196
48 356 314 53 67 55 41 36 60 52 6 332 54 76 67 33 355 8 68 0 333 342 45 93 88 99 112 112 115 120 131 145 163 183 281 294 229 181 186 184 172 159 123 123 45 70 104 116 137 152 155 146 133 142
24 344 70 45 53 53 36 4 51 16 6 26 5 156 220 252 260 298 284 267 249 243 254 280 211 213 206 207 195 200 181 203 227 250 249 239 188 80 172 191 158 150 178 175 159 141 135 132 135 142 150 154 160 165
334 11 69 46 82 86 338 311 237 202 135 69 29 324 342 328 300 185 250 281 280 240 231 233 226 213 213 213 222 235 244 220 228 236 243 261 252 220 202 194 187 168 161 158 167 171 163 170 170 172 180 188 191 225
26 37 51 75 57 359 334 8 18 21 41 42 73 311 255 285 11 31 22 304 278 245 218 238 223 216 212 230 237 251 258 290 284 231 231 228 242 216 199 202 194 193 193 178 172 167 179 191 203 213 230 244 262 271
76 52 57 59 35 30 14 304 66 28 199 86 97 24 23 352 68 46 342 271 304 319 340 335 300 271 240 223 224 230 233 236 241 295 275 281 286 282 260 230 205 200 202 205 201 200 204 214 226 231 238 253 260 262